Location: De Forest
(43.2480°N, 89.3440°W)
Time: 18:26:42
(UTC-05:00)

Tiangong 2 - Pass Details

Date: 29 May 2019
Orbit: 376 x 389 km, 42.8° (Epoch: 18 June)

Event Time Altitude Azimuth Distance (km) Brightness Sun altitude
Rises 21:07:02 0° 278° (W) 2,242 6.1 -6.6°
Reaches altitude 10° 21:09:09 10° 272° (W) 1,386 4.8 -6.9°
Maximum altitude 21:12:09 44° 198° (SSW) 529 1.6 -7.4°
Enters shadow 21:15:02 11° 125° (SE) 1,339 3.1 -7.8°
